Total_Precipitation_Accumulation
0.05 0.04 0.02 0.01 0.01 0.01 0.02 0.01 0.01 0.01 0.01 0.01 0.01 0.01 0.01 0.02 0.02 0.02 0.03 0.02 0.02 0.02 0.02 0.02 0.02 0.02 0.03 0.03 0.03 0.03 0.03 0.03 0.03 0.03 0.05 0.08 0.09 0.09 0.09 0.09 0.11 0.10 0.09 0.09 0.14 0.24 0.30 0.31 0.27 0.23 0.22 0.31 0.41 0.42 0.38 0.31 0.25 0.30 0.28 0.34 0.39 0.36 0.34 0.42 0.43 0.29 0.10 0.02 0.02 0.04 0.03 0.04 0.07 0.08 0.12 0.14 0.11 0.08 0.09 0.11 0.20 0.24 0.23 0.24 0.25
0.02 0.01 0.01 0.01 0.01 0.02 0.02 0.02 0.02 0.01 0.01 0.01 0.01 0.01 0.01 0.01 0.01 0.02 0.02 0.02 0.04 0.06 0.06 0.16 0.05 0.06 0.06 0.04 0.04 0.04 0.04 0.04 0.04 0.05 0.04 0.05 0.05 0.06 0.09 0.12 0.14 0.12 0.09 0.11 0.09 0.10 0.17 0.26 0.24 0.22 0.22 0.30 0.36 0.37 0.38 0.42 0.43 0.39 0.32 0.29 0.35 0.35 0.29 0.35 0.43 0.33 0.23 0.07 0.03 0.02 0.03 0.05 0.10 0.09 0.12 0.12 0.14 0.13 0.11 0.12 0.11 0.17 0.21 0.21 0.26
0.01 0.01 0.02 0.02 0.02 0.02 0.02 0.02 0.03 0.03 0.03 0.04 0.03 0.03 0.03 0.02 0.02 0.03 0.03 0.03 0.04 0.05 0.08 0.10 0.10 0.11 0.12 0.14 0.12 0.11 0.10 0.09 0.09 0.08 0.10 0.09 0.09 0.09 0.07 0.08 0.11 0.13 0.13 0.11 0.10 0.14 0.14 0.18 0.20 0.19 0.22 0.30 0.33 0.34 0.34 0.37 0.41 0.49 0.45 0.35 0.30 0.25 0.24 0.26 0.34 0.36 0.26 0.17 0.07 0.04 0.04 0.05 0.08 0.15 0.14 0.13 0.12 0.13 0.16 0.16 0.18 0.18 0.20 0.17 0.20
0.01 0.02 0.03 0.03 0.02 0.03 0.03 0.03 0.03 0.03 0.02 0.04 0.02 0.05 0.02 0.04 0.04 0.07 0.07 0.10 0.11 0.09 0.09 0.09 0.08 0.07 0.06 0.06 0.06 0.06 0.06 0.06 0.06 0.06 0.07 0.07 0.07 0.07 0.06 0.07 0.11 0.13 0.14 0.13 0.14 0.14 0.15 0.19 0.18 0.14 0.20 0.29 0.31 0.30 0.30 0.33 0.38 0.43 0.45 0.39 0.33 0.28 0.23 0.24 0.32 0.40 0.32 0.26 0.14 0.09 0.06 0.06 0.07 0.07 0.10 0.15 0.18 0.20 0.22 0.23 0.21 0.22 0.19 0.19 0.22
0.02 0.03 0.03 0.03 0.02 0.03 0.03 0.03 0.03 0.04 0.05 0.04 0.04 0.06 0.05 0.05 0.06 0.07 0.07 0.07 0.06 0.06 0.06 0.07 0.07 0.07 0.08 0.07 0.07 0.07 0.07 0.07 0.08 0.08 0.07 0.06 0.07 0.08 0.08 0.08 0.08 0.08 0.09 0.10 0.12 0.14 0.17 0.18 0.18 0.21 0.21 0.24 0.28 0.33 0.31 0.35 0.41 0.40 0.41 0.41 0.38 0.31 0.27 0.25 0.31 0.31 0.38 0.36 0.27 0.14 0.08 0.06 0.06 0.07 0.09 0.15 0.20 0.26 0.31 0.29 0.29 0.27 0.24 0.20 0.18
0.03 0.03 0.03 0.03 0.04 0.03 0.03 0.04 0.04 0.03 0.03 0.04 0.04 0.05 0.05 0.05 0.06 0.05 0.06 0.07 0.08 0.08 0.08 0.08 0.08 0.08 0.08 0.08 0.08 0.08 0.08 0.09 0.09 0.09 0.09 0.08 0.08 0.08 0.09 0.10 0.10 0.10 0.09 0.09 0.08 0.09 0.13 0.15 0.15 0.15 0.20 0.26 0.25 0.22 0.25 0.31 0.40 0.46 0.48 0.44 0.42 0.40 0.39 0.37 0.29 0.29 0.34 0.31 0.25 0.23 0.13 0.13 0.11 0.10 0.11 0.13 0.18 0.24 0.30 0.32 0.32 0.31 0.30 0.28 0.24
0.04 0.04 0.05 0.05 0.05 0.05 0.05 0.04 0.04 0.04 0.05 0.06 0.06 0.06 0.07 0.07 0.08 0.09 0.09 0.10 0.10 0.09 0.08 0.08 0.08 0.09 0.08 0.08 0.09 0.09 0.09 0.10 0.11 0.11 0.10 0.10 0.10 0.11 0.11 0.11 0.11 0.11 0.11 0.10 0.10 0.09 0.09 0.10 0.13 0.15 0.18 0.20 0.23 0.21 0.23 0.27 0.35 0.37 0.45 0.43 0.45 0.50 0.58 0.58 0.52 0.45 0.41 0.35 0.29 0.24 0.19 0.13 0.12 0.13 0.09 0.10 0.14 0.19 0.25 0.29 0.33 0.33 0.30 0.30 0.29
0.08 0.08 0.07 0.06 0.06 0.06 0.06 0.06 0.07 0.08 0.08 0.08 0.08 0.09 0.10 0.10 0.11 0.12 0.12 0.11 0.11 0.10 0.10 0.10 0.10 0.10 0.11 0.11 0.11 0.11 0.12 0.13 0.14 0.15 0.14 0.13 0.13 0.13 0.13 0.13 0.13 0.12 0.11 0.11 0.11 0.12 0.12 0.12 0.11 0.12 0.15 0.17 0.19 0.20 0.23 0.28 0.34 0.44 0.38 0.60 0.49 0.62 0.68 0.64 0.62 0.61 0.53 0.43 0.36 0.30 0.22 0.18 0.13 0.10 0.09 0.11 0.18 0.22 0.22 0.26 0.31 0.29 0.29 0.28 0.28
0.09 0.07 0.07 0.07 0.08 0.08 0.08 0.09 0.09 0.09 0.09 0.10 0.11 0.12 0.13 0.13 0.14 0.14 0.14 0.11 0.11 0.11 0.11 0.12 0.13 0.14 0.14 0.14 0.14 0.15 0.17 0.17 0.17 0.25 0.28 0.21 0.19 0.21 0.20 0.20 0.20 0.19 0.17 0.15 0.14 0.15 0.16 0.16 0.15 0.15 0.14 0.14 0.16 0.20 0.23 0.26 0.35 0.40 0.40 0.43 0.49 0.56 0.59 0.64 0.67 0.68 0.65 0.54 0.48 0.30 0.25 0.22 0.16 0.15 0.16 0.14 0.16 0.19 0.19 0.16 0.19 0.18 0.21 0.23 0.26
0.06 0.06 0.06 0.07 0.07 0.08 0.11 0.10 0.11 0.09 0.15 0.13 0.13 0.14 0.15 0.16 0.19 0.17 0.13 0.12 0.12 0.12 0.14 0.15 0.18 0.16 0.16 0.16 0.18 0.21 0.25 0.29 0.27 0.22 0.27 0.32 0.39 0.42 0.40 0.38 0.34 0.32 0.30 0.26 0.22 0.20 0.20 0.21 0.20 0.18 0.18 0.19 0.21 0.25 0.28 0.33 0.37 0.45 0.44 0.46 0.52 0.56 0.61 0.63 0.63 0.61 0.63 0.63 0.57 0.39 0.37 0.28 0.18 0.12 0.12 0.10 0.07 0.05 0.07 0.12 0.16 0.15 0.17 0.21 0.24
0.05 0.05 0.06 0.06 0.07 0.08 0.09 0.09 0.14 0.10 0.13 0.12 0.14 0.14 0.15 0.15 0.15 0.14 0.13 0.14 0.15 0.13 0.13 0.13 0.14 0.15 0.17 0.18 0.19 0.20 0.23 0.22 0.25 0.32 0.45 0.65 0.70 0.68 0.56 0.45 0.37 0.36 0.36 0.36 0.33 0.27 0.23 0.21 0.21 0.21 0.23 0.26 0.29 0.30 0.32 0.39 0.42 0.47 0.49 0.47 0.57 0.67 0.73 0.68 0.59 0.51 0.53 0.56 0.47 0.44 0.32 0.27 0.16 0.10 0.08 0.07 0.06 0.07 0.08 0.09 0.10 0.13 0.19 0.28 0.33
0.06 0.07 0.07 0.06 0.06 0.07 0.07 0.08 0.10 0.11 0.12 0.14 0.14 0.14 0.13 0.15 0.15 0.13 0.12 0.12 0.12 0.12 0.13 0.13 0.13 0.24 0.18 0.18 0.19 0.21 0.18 0.20 0.28 0.40 0.55 0.84 0.93 0.84 0.81 0.65 0.53 0.46 0.41 0.39 0.36 0.33 0.30 0.27 0.25 0.23 0.24 0.25 0.25 0.29 0.30 0.34 0.38 0.41 0.49 0.53 0.57 0.61 0.69 0.71 0.71 0.60 0.52 0.50 0.48 0.43 0.36 0.25 0.18 0.11 0.10 0.09 0.09 0.09 0.09 0.12 0.14 0.16 0.19 0.22 0.24
0.07 0.07 0.06 0.07 0.07 0.08 0.09 0.11 0.12 0.13 0.13 0.14 0.14 0.13 0.14 0.15 0.14 0.15 0.14 0.14 0.14 0.15 0.13 0.15 0.16 0.17 0.20 0.22 0.21 0.19 0.33 0.19 0.28 0.43 0.57 0.91 1.05 1.14 1.02 0.94 0.72 0.62 0.52 0.45 0.41 0.36 0.34 0.33 0.31 0.29 0.26 0.25 0.28 0.29 0.31 0.34 0.34 0.39 0.45 0.49 0.61 0.84 0.88 0.94 0.86 0.70 0.73 0.70 0.63 0.53 0.44 0.31 0.27 0.20 0.13 0.13 0.18 0.17 0.17 0.20 0.20 0.19 0.20 0.22 0.20
0.07 0.07 0.06 0.07 0.07 0.09 0.11 0.12 0.13 0.12 0.12 0.13 0.14 0.15 0.18 0.17 0.17 0.19 0.18 0.18 0.17 0.15 0.15 0.17 0.18 0.20 0.24 0.29 0.31 0.27 0.25 0.24 0.30 0.43 0.65 0.85 1.01 1.45 1.10 0.95 0.75 0.57 0.48 0.43 0.40 0.37 0.36 0.36 0.36 0.34 0.32 0.34 0.37 0.37 0.35 0.36 0.39 0.42 0.47 0.51 0.53 0.52 0.66 0.76 0.76 0.77 0.76 0.76 0.78 0.70 0.48 0.39 0.30 0.22 0.19 0.19 0.27 0.28 0.29 0.28 0.25 0.22 0.22 0.23 0.17
0.07 0.06 0.07 0.07 0.09 0.11 0.12 0.12 0.12 0.12 0.12 0.13 0.14 0.15 0.18 0.19 0.20 0.21 0.21 0.22 0.23 0.21 0.20 0.22 0.22 0.24 0.25 0.28 0.34 0.31 0.27 0.28 0.41 0.61 0.75 0.96 1.16 1.39 1.05 0.92 0.76 0.61 0.48 0.42 0.40 0.38 0.36 0.35 0.34 0.33 0.33 0.37 0.39 0.40 0.45 0.45 0.46 0.47 0.49 0.45 0.41 0.38 0.37 0.52 0.49 0.61 0.69 0.66 0.59 0.49 0.35 0.31 0.27 0.26 0.39 0.32 0.41 0.36 0.35 0.29 0.31 0.25 0.25 0.26 0.28
0.07 0.07 0.09 0.09 0.10 0.11 0.12 0.13 0.13 0.13 0.14 0.15 0.17 0.18 0.18 0.19 0.19 0.19 0.21 0.21 0.21 0.21 0.20 0.22 0.20 0.19 0.17 0.19 0.24 0.27 0.23 0.27 0.40 0.65 0.91 1.17 1.33 1.18 1.03 0.95 0.70 0.59 0.53 0.56 0.49 0.47 0.45 0.47 0.43 0.41 0.36 0.35 0.37 0.51 0.49 0.51 0.52 0.55 0.53 0.44 0.40 0.37 0.35 0.29 0.30 0.36 0.38 0.56 0.46 0.38 0.33 0.30 0.36 0.33 0.36 0.35 0.46 0.43 0.38 0.42 0.45 0.50 0.54 0.56 0.52
0.09 0.10 0.11 0.11 0.13 0.13 0.15 0.16 0.18 0.16 0.16 0.18 0.17 0.17 0.19 0.20 0.22 0.23 0.26 0.24 0.25 0.23 0.23 0.21 0.19 0.18 0.18 0.20 0.21 0.17 0.17 0.23 0.33 0.56 0.80 0.95 1.19 1.12 1.05 0.90 0.69 0.56 0.50 0.43 0.43 0.43 0.46 0.46 0.49 0.45 0.41 0.38 0.38 0.55 0.69 0.66 0.69 0.63 0.56 0.50 0.44 0.42 0.39 0.31 0.52 0.82 1.08 1.22 1.21 1.11 0.95 0.89 1.01 1.26 1.23 1.07 0.72 0.68 0.70 0.77 0.70 0.51 0.55 0.60 0.49
0.11 0.12 0.13 0.14 0.16 0.16 0.18 0.19 0.19 0.17 0.17 0.18 0.19 0.19 0.22 0.23 0.22 0.21 0.24 0.23 0.21 0.17 0.15 0.15 0.15 0.16 0.16 0.16 0.18 0.18 0.14 0.16 0.26 0.52 0.68 0.84 1.14 1.20 1.12 0.91 0.71 0.61 0.52 0.44 0.43 0.42 0.37 0.39 0.43 0.44 0.45 0.41 0.46 0.58 0.85 0.84 0.88 0.73 0.64 0.60 0.55 0.52 0.42 0.34 0.35 0.42 0.71 1.08 1.41 1.63 1.70 1.57 1.39 1.37 1.52 1.44 1.61 1.16 1.08 1.30 0.81 0.49 0.51 0.47 0.45
0.13 0.16 0.17 0.15 0.17 0.18 0.17 0.17 0.17 0.18 0.19 0.18 0.20 0.24 0.22 0.20 0.16 0.16 0.17 0.17 0.15 0.15 0.16 0.16 0.13 0.12 0.13 0.15 0.17 0.22 0.24 0.24 0.29 0.40 0.53 0.77 0.86 0.93 0.84 0.78 0.70 0.56 0.51 0.48 0.43 0.44 0.39 0.38 0.42 0.45 0.43 0.40 0.63 0.76 1.01 0.97 0.99 0.76 0.58 0.57 0.57 0.50 0.36 0.30 0.37 0.46 0.55 0.56 0.59 0.63 0.78 0.97 1.05 0.98 0.87 0.95 1.05 1.30 1.11 1.23 0.96 0.77 0.78 0.58 0.46
0.16 0.17 0.16 0.19 0.16 0.15 0.15 0.18 0.19 0.20 0.20 0.20 0.20 0.22 0.19 0.17 0.16 0.17 0.16 0.16 0.16 0.15 0.15 0.15 0.14 0.13 0.12 0.16 0.18 0.24 0.30 0.27 0.30 0.34 0.53 0.69 0.96 0.92 0.87 0.83 0.76 0.62 0.59 0.57 0.56 0.48 0.42 0.43 0.43 0.50 0.58 0.71 0.81 1.06 1.13 1.66 1.20 0.90 0.64 0.64 0.63 0.51 0.31 0.28 0.31 0.36 0.43 0.43 0.41 0.41 0.45 0.48 0.55 0.57 0.58 0.57 0.59 0.73 0.91 0.70 0.71 0.86 0.84 0.68 0.53
0.17 0.17 0.17 0.15 0.14 0.15 0.18 0.19 0.21 0.21 0.21 0.24 0.23 0.19 0.16 0.18 0.17 0.16 0.16 0.15 0.18 0.17 0.13 0.13 0.15 0.15 0.15 0.16 0.20 0.26 0.32 0.39 0.39 0.43 0.52 0.59 0.80 1.04 0.84 0.73 0.61 0.62 0.68 0.70 0.61 0.52 0.41 0.36 0.34 0.33 0.38 0.51 0.77 1.09 1.22 1.32 1.28 1.07 1.14 0.90 0.54 0.34 0.37 0.47 0.53 0.56 0.51 0.49 0.43 0.45 0.43 0.46 0.48 0.49 0.50 0.45 0.47 0.54 0.55 0.63 0.60 0.50 0.50 0.59 0.62
0.16 0.16 0.15 0.15 0.16 0.17 0.19 0.21 0.22 0.23 0.21 0.20 0.20 0.16 0.14 0.15 0.17 0.17 0.18 0.21 0.19 0.16 0.15 0.19 0.22 0.20 0.19 0.23 0.28 0.34 0.29 0.28 0.26 0.24 0.27 0.43 0.60 0.94 0.81 0.65 0.52 0.66 0.78 0.69 0.56 0.46 0.37 0.31 0.30 0.32 0.38 0.50 0.63 0.97 1.32 1.39 1.44 1.15 1.03 1.25 1.37 1.39 0.83 0.72 0.65 0.64 0.59 0.56 0.51 0.50 0.48 0.48 0.52 0.49 0.43 0.39 0.34 0.33 0.39 0.43 0.49 0.48 0.41 0.37 0.37
0.16 0.17 0.18 0.17 0.17 0.19 0.20 0.21 0.21 0.20 0.20 0.20 0.23 0.20 0.15 0.15 0.16 0.19 0.23 0.26 0.25 0.27 0.25 0.26 0.28 0.26 0.23 0.22 0.22 0.25 0.26 0.26 0.26 0.24 0.24 0.36 0.51 0.75 0.86 0.82 0.86 0.75 0.83 0.77 0.57 0.43 0.36 0.35 0.32 0.34 0.46 0.65 0.89 1.13 1.28 1.50 1.13 1.11 1.55 1.45 1.37 1.24 1.19 1.06 1.07 1.04 0.95 0.81 0.65 0.58 0.51 0.44 0.44 0.43 0.39 0.36 0.33 0.29 0.30 0.32 0.35 0.39 0.46 0.47 0.37
0.18 0.20 0.19 0.18 0.18 0.17 0.18 0.18 0.19 0.20 0.23 0.23 0.21 0.19 0.17 0.18 0.19 0.20 0.22 0.28 0.29 0.28 0.21 0.24 0.25 0.25 0.25 0.25 0.27 0.28 0.28 0.27 0.27 0.27 0.28 0.30 0.44 0.73 0.85 0.93 1.04 0.85 0.69 0.56 0.46 0.41 0.41 0.36 0.35 0.43 0.77 1.04 1.32 1.49 1.51 1.39 1.11 1.21 1.51 1.27 1.28 1.30 1.13 1.06 1.02 1.01 0.97 0.87 0.79 0.67 0.58 0.47 0.39 0.40 0.35 0.31 0.30 0.28 0.26 0.28 0.31 0.34 0.56 0.43 0.37
0.23 0.21 0.19 0.17 0.16 0.16 0.17 0.18 0.18 0.19 0.20 0.21 0.22 0.20 0.17 0.17 0.20 0.19 0.24 0.29 0.31 0.29 0.24 0.27 0.30 0.30 0.30 0.34 0.36 0.34 0.31 0.28 0.28 0.28 0.29 0.29 0.38 0.64 0.80 0.83 0.73 0.63 0.62 0.49 0.45 0.45 0.45 0.62 0.79 1.05 1.06 1.18 1.24 1.24 1.19 1.07 1.16 1.03 1.07 1.02 1.01 0.91 1.09 1.11 0.93 0.76 0.77 0.79 0.68 0.54 0.45 0.42 0.36 0.32 0.32 0.33 0.34 0.30 0.30 0.32 0.34 0.33 0.34 0.36 0.31
0.22 0.19 0.16 0.14 0.15 0.16 0.17 0.15 0.16 0.18 0.17 0.16 0.17 0.18 0.19 0.20 0.24 0.23 0.27 0.30 0.27 0.31 0.33 0.33 0.35 0.35 0.39 0.41 0.44 0.40 0.35 0.33 0.30 0.28 0.29 0.29 0.33 0.47 0.66 0.50 0.46 0.46 0.48 0.44 0.38 0.38 0.61 0.85 0.85 0.69 0.70 0.69 0.72 0.71 0.82 0.53 0.53 0.65 0.76 0.84 0.92 0.87 0.83 0.85 0.85 0.71 0.62 0.48 0.42 0.42 0.41 0.40 0.41 0.39 0.37 0.35 0.37 0.36 0.31 0.31 0.31 0.38 0.33 0.32 0.33
0.20 0.17 0.14 0.14 0.15 0.16 0.17 0.18 0.19 0.17 0.15 0.14 0.15 0.16 0.18 0.21 0.23 0.26 0.31 0.32 0.31 0.35 0.38 0.41 0.43 0.45 0.48 0.42 0.40 0.37 0.36 0.33 0.31 0.28 0.27 0.34 0.35 0.36 0.47 0.47 0.45 0.43 0.41 0.45 0.45 0.43 0.40 0.47 0.48 0.50 0.51 0.53 0.56 0.61 0.50 0.40 0.46 0.59 0.60 0.66 0.74 0.83 0.75 0.65 0.59 0.60 0.55 0.43 0.38 0.35 0.34 0.37 0.44 0.51 0.53 0.45 0.42 0.36 0.30 0.27 0.27 0.27 0.27 0.29 0.28
0.20 0.17 0.15 0.16 0.17 0.18 0.19 0.18 0.19 0.17 0.17 0.18 0.19 0.17 0.17 0.17 0.23 0.28 0.34 0.43 0.52 0.51 0.52 0.54 0.58 0.65 0.68 0.52 0.42 0.34 0.36 0.36 0.33 0.36 0.39 0.42 0.45 0.50 0.53 0.49 0.45 0.39 0.40 0.42 0.42 0.40 0.42 0.48 0.57 0.65 0.74 0.77 0.70 0.65 0.60 0.64 0.58 0.47 0.40 0.44 0.56 0.60 0.66 0.71 0.73 0.50 0.48 0.39 0.37 0.37 0.38 0.41 0.50 0.50 0.53 0.53 0.41 0.31 0.28 0.32 0.26 0.25 0.24 0.25 0.34
0.18 0.16 0.15 0.16 0.16 0.16 0.18 0.18 0.17 0.17 0.18 0.18 0.22 0.25 0.24 0.26 0.30 0.27 0.23 0.35 0.54 0.84 1.05 0.94 0.87 0.91 0.75 0.70 0.62 0.49 0.43 0.43 0.42 0.40 0.43 0.53 0.63 0.70 0.67 0.58 0.49 0.46 0.42 0.41 0.40 0.45 0.49 0.53 0.52 0.47 0.42 0.43 0.52 0.57 0.53 0.48 0.44 0.41 0.40 0.41 0.44 0.58 0.68 0.71 0.75 0.71 0.59 0.49 0.45 0.45 0.44 0.43 0.42 0.39 0.39 0.48 0.45 0.42 0.31 0.29 0.25 0.22 0.25 0.24 0.26
0.22 0.17 0.16 0.17 0.16 0.17 0.18 0.16 0.15 0.17 0.19 0.18 0.18 0.20 0.24 0.31 0.34 0.42 0.38 0.30 0.37 0.55 0.96 1.09 1.10 1.06 1.05 0.83 0.71 0.78 0.76 0.60 0.60 0.77 0.85 1.02 0.91 0.85 0.80 0.80 0.67 0.56 0.46 0.39 0.44 0.45 0.48 0.49 0.46 0.45 0.44 0.43 0.46 0.51 0.52 0.50 0.52 0.51 0.47 0.45 0.43 0.45 0.52 0.67 0.63 0.55 0.52 0.53 0.49 0.46 0.41 0.40 0.41 0.40 0.38 0.38 0.33 0.32 0.34 0.34 0.31 0.26 0.28 0.31 0.28
0.27 0.21 0.18 0.18 0.17 0.20 0.19 0.17 0.16 0.18 0.19 0.18 0.18 0.19 0.19 0.20 0.27 0.33 0.32 0.32 0.33 0.51 0.71 0.91 1.04 1.05 1.28 1.19 0.78 0.64 0.61 0.53 0.66 0.71 0.87 1.08 1.25 0.84 0.88 0.85 0.74 0.75 0.68 0.63 0.67 0.61 0.56 0.50 0.48 0.46 0.45 0.45 0.46 0.49 0.49 0.46 0.46 0.49 0.51 0.48 0.46 0.45 0.44 0.48 0.62 0.62 0.65 0.67 0.61 0.52 0.47 0.42 0.40 0.38 0.39 0.33 0.33 0.30 0.30 0.33 0.34 0.38 0.36 0.30 0.28
0.33 0.26 0.23 0.21 0.19 0.18 0.18 0.18 0.18 0.18 0.17 0.17 0.18 0.19 0.18 0.15 0.14 0.20 0.32 0.35 0.35 0.46 0.56 0.71 0.89 1.05 1.03 1.04 0.95 0.79 0.67 0.65 0.59 0.77 0.90 1.21 0.81 0.68 0.75 0.75 0.87 0.85 0.70 0.55 0.54 0.58 0.53 0.51 0.50 0.48 0.48 0.48 0.49 0.49 0.47 0.44 0.44 0.45 0.50 0.55 0.55 0.50 0.47 0.48 0.49 0.53 0.55 0.57 0.63 0.62 0.58 0.55 0.47 0.40 0.39 0.35 0.33 0.33 0.33 0.38 0.43 0.39 0.39 0.36 0.30
0.30 0.27 0.24 0.22 0.20 0.17 0.18 0.18 0.18 0.18 0.19 0.19 0.18 0.18 0.19 0.19 0.20 0.17 0.17 0.23 0.32 0.38 0.38 0.43 0.54 0.63 0.71 0.84 0.95 0.96 0.79 0.72 0.70 0.96 1.00 0.80 0.58 0.52 0.67 0.86 0.85 0.68 0.71 0.57 0.44 0.44 0.43 0.41 0.45 0.47 0.46 0.47 0.47 0.46 0.47 0.46 0.45 0.45 0.45 0.47 0.50 0.51 0.49 0.46 0.46 0.47 0.51 0.58 0.62 0.56 0.53 0.61 0.55 0.49 0.42 0.39 0.40 0.44 0.41 0.36 0.33 0.35 0.35 0.36 0.34
0.26 0.28 0.26 0.24 0.22 0.20 0.18 0.19 0.20 0.19 0.19 0.20 0.20 0.20 0.19 0.21 0.23 0.23 0.23 0.16 0.18 0.23 0.28 0.30 0.32 0.33 0.35 0.45 0.55 0.55 0.60 0.68 0.64 0.56 0.67 0.67 0.77 0.78 0.69 0.61 0.49 0.41 0.43 0.45 0.42 0.38 0.37 0.36 0.37 0.38 0.38 0.37 0.38 0.38 0.38 0.39 0.38 0.38 0.39 0.41 0.43 0.44 0.44 0.44 0.43 0.45 0.47 0.50 0.55 0.53 0.51 0.51 0.52 0.56 0.60 0.56 0.45 0.39 0.40 0.38 0.34 0.36 0.40 0.41 0.35
0.23 0.22 0.19 0.19 0.21 0.21 0.19 0.20 0.21 0.20 0.19 0.19 0.19 0.20 0.22 0.20 0.22 0.26 0.30 0.29 0.30 0.29 0.25 0.26 0.22 0.19 0.28 0.32 0.39 0.39 0.40 0.43 0.49 0.55 0.60 0.63 0.65 0.59 0.52 0.45 0.40 0.28 0.25 0.24 0.26 0.28 0.28 0.29 0.29 0.29 0.28 0.29 0.29 0.28 0.29 0.29 0.31 0.31 0.31 0.32 0.32 0.34 0.36 0.38 0.39 0.38 0.39 0.41 0.42 0.43 0.44 0.46 0.46 0.48 0.50 0.55 0.56 0.58 0.51 0.45 0.41 0.43 0.38 0.34 0.32
0.23 0.22 0.19 0.16 0.17 0.19 0.19 0.19 0.21 0.21 0.21 0.20 0.20 0.22 0.22 0.21 0.24 0.25 0.26 0.26 0.32 0.31 0.27 0.25 0.24 0.22 0.20 0.23 0.30 0.33 0.35 0.35 0.44 0.55 0.63 0.66 0.63 0.54 0.44 0.36 0.26 0.21 0.21 0.22 0.21 0.22 0.22 0.23 0.23 0.22 0.22 0.22 0.24 0.25 0.27 0.27 0.28 0.28 0.28 0.27 0.27 0.27 0.28 0.29 0.31 0.32 0.34 0.36 0.37 0.38 0.40 0.43 0.44 0.45 0.47 0.47 0.48 0.49 0.47 0.41 0.38 0.36 0.34 0.32 0.32
0.24 0.22 0.19 0.17 0.18 0.19 0.19 0.18 0.19 0.19 0.19 0.20 0.19 0.20 0.20 0.19 0.21 0.22 0.22 0.23 0.27 0.27 0.26 0.23 0.19 0.16 0.17 0.16 0.24 0.26 0.28 0.33 0.41 0.45 0.51 0.52 0.41 0.28 0.22 0.20 0.21 0.21 0.20 0.21 0.20 0.19 0.19 0.20 0.20 0.20 0.20 0.22 0.24 0.24 0.24 0.24 0.23 0.23 0.22 0.22 0.23 0.23 0.25 0.27 0.28 0.28 0.29 0.30 0.32 0.33 0.34 0.37 0.39 0.39 0.40 0.42 0.42 0.43 0.45 0.47 0.47 0.43 0.40 0.36 0.32
0.22 0.21 0.20 0.19 0.20 0.19 0.19 0.19 0.18 0.17 0.17 0.18 0.18 0.19 0.20 0.19 0.21 0.21 0.22 0.22 0.23 0.25 0.25 0.22 0.21 0.18 0.21 0.19 0.21 0.26 0.27 0.26 0.24 0.27 0.29 0.30 0.26 0.21 0.19 0.20 0.22 0.21 0.19 0.19 0.19 0.19 0.19 0.18 0.18 0.18 0.19 0.18 0.17 0.17 0.17 0.17 0.18 0.17 0.17 0.16 0.17 0.18 0.22 0.21 0.24 0.25 0.25 0.24 0.25 0.28 0.30 0.32 0.35 0.37 0.36 0.34 0.34 0.35 0.36 0.37 0.40 0.45 0.46 0.45 0.44
0.20 0.17 0.16 0.17 0.19 0.20 0.20 0.19 0.17 0.17 0.17 0.17 0.17 0.19 0.20 0.20 0.19 0.19 0.20 0.20 0.18 0.19 0.22 0.22 0.21 0.21 0.22 0.25 0.28 0.28 0.24 0.24 0.26 0.27 0.28 0.28 0.23 0.20 0.20 0.21 0.21 0.19 0.19 0.20 0.20 0.19 0.19 0.18 0.18 0.17 0.16 0.16 0.16 0.16 0.17 0.16 0.15 0.15 0.14 0.14 0.14 0.14 0.15 0.16 0.17 0.19 0.21 0.21 0.21 0.22 0.25 0.26 0.29 0.32 0.34 0.31 0.29 0.28 0.30 0.32 0.32 0.34 0.38 0.40 0.41
0.22 0.19 0.16 0.16 0.19 0.18 0.19 0.19 0.18 0.19 0.19 0.19 0.17 0.18 0.20 0.20 0.20 0.21 0.22 0.20 0.18 0.18 0.20 0.22 0.23 0.23 0.24 0.28 0.33 0.31 0.25 0.24 0.23 0.22 0.22 0.22 0.23 0.23 0.21 0.19 0.19 0.20 0.22 0.22 0.21 0.20 0.20 0.19 0.18 0.17 0.16 0.15 0.15 0.16 0.16 0.16 0.15 0.14 0.13 0.13 0.13 0.13 0.14 0.14 0.14 0.15 0.16 0.18 0.19 0.19 0.20 0.21 0.22 0.25 0.28 0.29 0.28 0.28 0.29 0.28 0.27 0.31 0.31 0.29 0.28
0.24 0.21 0.20 0.18 0.19 0.20 0.18 0.18 0.18 0.19 0.20 0.19 0.19 0.21 0.22 0.21 0.21 0.22 0.22 0.19 0.18 0.18 0.19 0.22 0.24 0.24 0.28 0.33 0.31 0.35 0.32 0.31 0.28 0.25 0.25 0.23 0.21 0.19 0.19 0.19 0.20 0.20 0.21 0.22 0.22 0.21 0.20 0.19 0.17 0.16 0.15 0.14 0.15 0.16 0.16 0.15 0.15 0.14 0.14 0.13 0.13 0.13 0.13 0.13 0.13 0.13 0.14 0.15 0.16 0.17 0.18 0.19 0.20 0.22 0.23 0.24 0.27 0.27 0.26 0.28 0.30 0.30 0.30 0.30 0.27
0.24 0.24 0.22 0.20 0.18 0.20 0.20 0.18 0.19 0.19 0.18 0.19 0.19 0.21 0.23 0.22 0.21 0.23 0.22 0.19 0.19 0.18 0.19 0.20 0.22 0.24 0.27 0.29 0.30 0.32 0.27 0.26 0.25 0.23 0.24 0.23 0.21 0.20 0.20 0.19 0.19 0.20 0.21 0.22 0.23 0.22 0.20 0.19 0.17 0.16 0.15 0.15 0.15 0.15 0.16 0.15 0.15 0.15 0.14 0.14 0.13 0.13 0.13 0.13 0.13 0.13 0.14 0.14 0.14 0.14 0.15 0.17 0.19 0.21 0.21 0.25 0.23 0.23 0.24 0.26 0.27 0.28 0.31 0.31 0.30
0.24 0.24 0.25 0.22 0.21 0.22 0.23 0.21 0.19 0.18 0.17 0.17 0.18 0.20 0.21 0.22 0.23 0.23 0.21 0.20 0.19 0.18 0.18 0.18 0.19 0.20 0.23 0.23 0.24 0.23 0.22 0.21 0.22 0.23 0.23 0.22 0.22 0.20 0.20 0.19 0.19 0.20 0.21 0.21 0.22 0.21 0.19 0.18 0.17 0.16 0.16 0.15 0.16 0.17 0.17 0.16 0.16 0.15 0.15 0.15 0.14 0.14 0.13 0.13 0.13 0.14 0.14 0.13 0.13 0.13 0.14 0.14 0.16 0.17 0.19 0.20 0.21 0.22 0.22 0.22 0.24 0.24 0.26 0.29 0.30
0.24 0.24 0.24 0.24 0.22 0.21 0.21 0.21 0.20 0.19 0.20 0.19 0.19 0.18 0.19 0.21 0.21 0.20 0.20 0.18 0.17 0.17 0.19 0.19 0.20 0.21 0.22 0.23 0.21 0.19 0.20 0.20 0.21 0.22 0.23 0.21 0.20 0.20 0.20 0.19 0.19 0.19 0.19 0.19 0.19 0.18 0.18 0.18 0.17 0.15 0.14 0.14 0.15 0.15 0.15 0.15 0.15 0.16 0.15 0.15 0.15 0.15 0.14 0.14 0.15 0.15 0.15 0.15 0.14 0.14 0.14 0.13 0.13 0.14 0.16 0.17 0.19 0.20 0.20 0.21 0.21 0.22 0.22 0.24 0.26
0.23 0.24 0.25 0.25 0.22 0.22 0.21 0.20 0.22 0.21 0.20 0.19 0.18 0.17 0.17 0.18 0.20 0.20 0.19 0.18 0.18 0.18 0.19 0.19 0.20 0.21 0.23 0.23 0.23 0.22 0.21 0.21 0.22 0.22 0.23 0.22 0.21 0.19 0.19 0.20 0.21 0.20 0.19 0.18 0.17 0.17 0.17 0.17 0.16 0.16 0.14 0.13 0.12 0.12 0.12 0.12 0.13 0.14 0.15 0.15 0.15 0.15 0.15 0.15 0.15 0.15 0.16 0.16 0.15 0.14 0.14 0.14 0.14 0.14 0.14 0.15 0.16 0.18 0.18 0.19 0.20 0.21 0.22 0.22 0.24
0.22 0.23 0.24 0.25 0.24 0.22 0.22 0.21 0.22 0.21 0.21 0.22 0.22 0.20 0.17 0.17 0.19 0.20 0.19 0.18 0.19 0.20 0.20 0.20 0.20 0.22 0.24 0.25 0.25 0.24 0.24 0.23 0.22 0.23 0.23 0.22 0.21 0.19 0.19 0.20 0.20 0.19 0.19 0.18 0.17 0.16 0.16 0.16 0.16 0.15 0.14 0.12 0.10 0.09 0.09 0.10 0.10 0.10 0.11 0.12 0.13 0.14 0.15 0.15 0.15 0.14 0.14 0.14 0.14 0.14 0.14 0.14 0.13 0.14 0.15 0.16 0.16 0.17 0.18 0.18 0.19 0.20 0.20 0.20 0.23
0.22 0.22 0.23 0.24 0.25 0.25 0.24 0.24 0.23 0.24 0.23 0.23 0.24 0.22 0.18 0.18 0.21 0.19 0.19 0.20 0.20 0.20 0.21 0.20 0.20 0.21 0.24 0.26 0.26 0.25 0.25 0.23 0.24 0.23 0.23 0.23 0.22 0.20 0.18 0.18 0.18 0.17 0.15 0.14 0.14 0.14 0.14 0.14 0.14 0.14 0.12 0.11 0.09 0.09 0.08 0.08 0.09 0.09 0.09 0.10 0.10 0.10 0.11 0.11 0.12 0.12 0.12 0.12 0.12 0.13 0.13 0.13 0.13 0.13 0.13 0.14 0.15 0.16 0.16 0.17 0.18 0.18 0.18 0.19 0.21
0.22 0.23 0.23 0.23 0.24 0.27 0.27 0.28 0.27 0.26 0.25 0.25 0.24 0.22 0.20 0.19 0.21 0.18 0.20 0.19 0.19 0.21 0.21 0.20 0.20 0.21 0.24 0.26 0.26 0.26 0.25 0.23 0.22 0.22 0.22 0.21 0.20 0.19 0.19 0.19 0.17 0.16 0.15 0.13 0.11 0.11 0.11 0.11 0.11 0.10 0.10 0.09 0.09 0.08 0.08 0.08 0.08 0.08 0.09 0.09 0.09 0.09 0.09 0.09 0.10 0.09 0.09 0.09 0.10 0.10 0.11 0.11 0.11 0.12 0.13 0.14 0.14 0.15 0.16 0.15 0.16 0.16 0.17 0.18 0.18
0.22 0.23 0.24 0.23 0.24 0.25 0.28 0.29 0.29 0.29 0.28 0.27 0.24 0.22 0.22 0.21 0.19 0.18 0.21 0.20 0.22 0.22 0.22 0.20 0.20 0.21 0.22 0.24 0.26 0.26 0.25 0.23 0.21 0.20 0.19 0.19 0.18 0.17 0.17 0.16 0.15 0.14 0.12 0.10 0.09 0.09 0.08 0.08 0.08 0.09 0.09 0.09 0.09 0.09 0.08 0.08 0.08 0.08 0.09 0.08 0.08 0.08 0.08 0.08 0.08 0.08 0.08 0.09 0.08 0.08 0.09 0.09 0.09 0.09 0.10 0.11 0.12 0.13 0.14 0.14 0.15 0.15 0.16 0.16 0.18
0.22 0.23 0.23 0.24 0.24 0.25 0.25 0.27 0.27 0.27 0.26 0.25 0.26 0.25 0.22 0.17 0.16 0.18 0.19 0.20 0.22 0.21 0.19 0.19 0.20 0.21 0.22 0.22 0.22 0.22 0.20 0.19 0.18 0.18 0.17 0.16 0.16 0.15 0.14 0.13 0.12 0.11 0.10 0.09 0.08 0.07 0.07 0.07 0.07 0.07 0.08 0.08 0.08 0.08 0.08 0.08 0.08 0.09 0.09 0.08 0.07 0.08 0.08 0.08 0.07 0.08 0.08 0.08 0.08 0.08 0.08 0.08 0.08 0.08 0.08 0.09 0.09 0.10 0.11 0.12 0.13 0.14 0.15 0.15 0.16
0.21 0.22 0.22 0.24 0.25 0.25 0.25 0.26 0.25 0.25 0.25 0.26 0.24 0.22 0.19 0.18 0.18 0.19 0.20 0.21 0.21 0.21 0.20 0.21 0.20 0.20 0.20 0.20 0.21 0.19 0.18 0.16 0.15 0.14 0.14 0.13 0.13 0.12 0.11 0.10 0.09 0.08 0.08 0.07 0.06 0.06 0.06 0.06 0.06 0.06 0.06 0.07 0.07 0.07 0.07 0.08 0.09 0.09 0.08 0.08 0.08 0.08 0.08 0.08 0.08 0.07 0.08 0.08 0.08 0.07 0.07 0.07 0.07 0.07 0.07 0.07 0.08 0.09 0.09 0.10 0.11 0.12 0.13 0.14 0.14